Weather History for Aurora, NE

Change the Weather History Date:

Monday, October 8, 2012

  Actual Average Record
Temperature  
Mean Temperature 54 °F -  
Max Temperature 75 °F 69 °F 91 °F (2010)
Min Temperature 34 °F 42 °F 15 °F (2000)
Degree Days  
Heating Degree Days 10    
Growing Degree Days 4 (Base 50)    
Moisture  
Dew Point 27 °F    
Average Humidity 48    
Maximum Humidity 89    
Minimum Humidity 12    
Precipitation  
Precipitation 0.00 in - - ()
Sea Level Pressure  
Sea Level Pressure 29.88 in    
Wind  
Wind Speed 10 mph (SW)    
Max Wind Speed 22 mph    
Max Gust Speed 34 mph    
Visibility 10 miles    
Events      
Averages and records for this station are not official NWS values.
T = Trace of Precipitation, MM = Missing Value Source: NWS Daily Summary

Daily Weather History Graph

Daily Weather History Graph

Search for Another Location

Airport:

Trip Planner

Search our weather history database for the weather conditions in past years. The results will help you decide how hot, cold, wet, or windy it might be!

Date:

Astronomy

Oct. 08, 2012 Rise Set
Actual Time 7:36 AM CDT 7:01 PM CDT
Civil Twilight 7:08 AM CDT 7:29 PM CDT
Nautical Twilight 6:37 AM CDT 8:00 PM CDT
Astronomical Twilight 6:05 AM CDT 8:32 PM CDT
Moon 12:14 AM CDT (10/8) 2:54 PM CDT (10/8)
Length of Visible Light 12h 20m
Length of Day
11h 25m
Last Quarter, 46% of the Moon is Illuminated
Oct 8
Last Quarter
Oct 15
New
Oct 21
First Quarter
Oct 29
Full
Nov 6
Last Quarter

Hourly Weather History & Observations

Time (CDT) Temp. Windchill Dew Point Humidity Pressure Visibility Wind Dir Wind Speed Gust Speed Precip Events Conditions
12:15 AM 41.4 °F 35.2 °F 33.1 °F 72% 30.01 in 10.0 mi SW 10.4 mph - N/A   Clear
12:35 AM 41.4 °F 35.7 °F 33.6 °F 74% 30.01 in 10.0 mi SW 9.2 mph - N/A   Clear
12:55 AM 41.5 °F 35.9 °F 33.8 °F 74% 30.00 in 10.0 mi SW 9.2 mph - N/A   Clear
1:15 AM 41.0 °F 35.8 °F 33.8 °F 76% 30.00 in 10.0 mi SW 8.1 mph - N/A   Clear
1:35 AM 40.1 °F 34.7 °F 33.6 °F 78% 30.00 in 10.0 mi SW 8.1 mph - N/A   Clear
1:55 AM 39.0 °F 33.4 °F 33.1 °F 79% 30.00 in 10.0 mi SW 8.1 mph - N/A   Clear
2:15 AM 38.3 °F 32.5 °F 33.1 °F 81% 30.00 in 10.0 mi SW 8.1 mph - N/A   Clear
2:35 AM 38.3 °F 32.5 °F 33.3 °F 82% 29.99 in 10.0 mi SW 8.1 mph - N/A   Clear
2:55 AM 37.9 °F 32.1 °F 33.3 °F 83% 29.99 in 10.0 mi SW 8.1 mph - N/A   Clear
3:15 AM 37.6 °F 31.6 °F 33.1 °F 84% 29.98 in 10.0 mi SW 8.1 mph - N/A   Clear
3:35 AM 37.9 °F 32.1 °F 33.3 °F 83% 29.97 in 10.0 mi SW 8.1 mph - N/A   Clear
3:55 AM 38.3 °F 32.5 °F 33.4 °F 83% 29.96 in 10.0 mi SW 8.1 mph - N/A   Clear
4:15 AM 38.1 °F 32.3 °F 33.4 °F 83% 29.96 in 10.0 mi SW 8.1 mph - N/A   Clear
4:35 AM 38.3 °F 31.9 °F 33.4 °F 83% 29.96 in 10.0 mi SW 9.2 mph - N/A   Clear
4:55 AM 38.1 °F 31.7 °F 33.3 °F 83% 29.96 in 10.0 mi SW 9.2 mph - N/A   Clear
5:15 AM 37.6 °F 31.6 °F 33.1 °F 84% 29.96 in 10.0 mi WSW 8.1 mph - N/A   Clear
5:35 AM 37.0 °F 31.0 °F 32.9 °F 85% 29.96 in 10.0 mi WSW 8.1 mph - N/A   Clear
5:55 AM 36.5 °F 31.0 °F 32.4 °F 85% 29.96 in 10.0 mi SW 6.9 mph - N/A   Clear
6:15 AM 35.6 °F 30.7 °F 32.0 °F 87% 29.95 in 10.0 mi SW 5.8 mph - N/A   Clear
6:35 AM 34.9 °F 29.0 °F 32.0 °F 89% 29.95 in 10.0 mi SW 6.9 mph - N/A   Clear
6:55 AM 35.2 °F 29.5 °F 32.0 °F 88% 29.94 in 10.0 mi SW 6.9 mph - N/A   Clear
7:15 AM 34.9 °F 29.0 °F 31.8 °F 89% 29.95 in 10.0 mi SW 6.9 mph - N/A   Clear
7:35 AM 34.2 °F 28.2 °F 31.1 °F 89% 29.94 in 10.0 mi SW 6.9 mph - N/A   Clear
7:55 AM 34.0 °F 27.2 °F 30.9 °F 89% 29.93 in 10.0 mi SW 8.1 mph - N/A   Clear
8:15 AM 35.8 °F 30.1 °F 31.5 °F 84% 29.94 in 10.0 mi SW 6.9 mph - N/A   Clear
8:35 AM 37.2 °F 31.2 °F 31.6 °F 80% 29.93 in 10.0 mi SW 8.1 mph - N/A   Clear
8:55 AM 39.4 °F 33.2 °F 31.3 °F 73% 29.93 in 10.0 mi SW 9.2 mph - N/A   Clear
9:15 AM 42.1 °F 37.1 °F 31.5 °F 66% 29.92 in 10.0 mi SW 8.1 mph - N/A   Clear
9:35 AM 45.3 °F 40.1 °F 31.8 °F 59% 29.92 in 10.0 mi SW 10.4 mph - N/A   Clear
9:55 AM 48.6 °F - 32.0 °F 53% 29.92 in 10.0 mi SW 6.9 mph - N/A   Clear
10:15 AM 52.3 °F - 31.8 °F 46% 29.92 in 10.0 mi SW 10.4 mph - N/A   Clear
10:35 AM 55.4 °F - 31.5 °F 40% 29.92 in 10.0 mi SW 10.4 mph - N/A   Clear
10:55 AM 58.3 °F - 28.9 °F 33% 29.91 in 10.0 mi SW 11.5 mph 17.3 mph N/A   Clear
11:15 AM 60.1 °F - 28.6 °F 30% 29.90 in 10.0 mi SW 13.8 mph - N/A   Clear
11:35 AM 62.6 °F - 29.3 °F 28% 29.89 in 10.0 mi SW 13.8 mph 18.4 mph N/A   Clear
11:55 AM 64.9 °F - 28.8 °F 26% 29.89 in 10.0 mi SW 13.8 mph 20.7 mph N/A   Clear
12:15 PM 66.2 °F - 29.5 °F 25% 29.88 in 10.0 mi SW 10.4 mph - N/A   Clear
12:55 PM 69.1 °F - 26.6 °F 20% 29.85 in 10.0 mi SW 18.4 mph 24.2 mph N/A   Clear
1:15 PM 70.7 °F - 24.3 °F 18% 29.84 in 10.0 mi SW 19.6 mph 26.5 mph N/A   Clear
1:35 PM 71.6 °F - 23.7 °F 17% 29.83 in 10.0 mi SW 18.4 mph 27.6 mph N/A   Clear
1:55 PM 72.5 °F - 20.8 °F 14% 29.82 in 10.0 mi SW 21.9 mph 28.8 mph N/A   Clear
2:15 PM 73.6 °F - 20.1 °F 13% 29.81 in 10.0 mi WSW 18.4 mph 26.5 mph N/A   Clear
2:35 PM 73.9 °F - 20.5 °F 13% 29.80 in 10.0 mi SW 20.7 mph 34.5 mph N/A   Clear
2:55 PM 74.5 °F - 19.4 °F 13% 29.79 in 10.0 mi WSW 17.3 mph 26.5 mph N/A   Clear
3:15 PM 73.9 °F - 19.2 °F 13% 29.79 in 10.0 mi WSW 17.3 mph 28.8 mph N/A   Clear
3:35 PM 74.5 °F - 19.0 °F 12% 29.79 in 10.0 mi WSW 19.6 mph 29.9 mph N/A   Clear
3:55 PM 75.2 °F - 19.4 °F 12% 29.78 in 10.0 mi WSW 17.3 mph 25.3 mph N/A   Clear
4:15 PM 75.0 °F - 18.9 °F 12% 29.78 in 10.0 mi WSW 9.2 mph 23.0 mph N/A   Clear
4:35 PM 74.5 °F - 19.8 °F 13% 29.78 in 10.0 mi WSW 16.1 mph 20.7 mph N/A   Clear
4:55 PM 74.5 °F - 19.2 °F 12% 29.78 in 10.0 mi WSW 12.7 mph - N/A   Clear
5:15 PM 73.6 °F - 18.1 °F 12% 29.78 in 10.0 mi WSW 10.4 mph 17.3 mph N/A   Clear
5:35 PM 73.8 °F - 18.3 °F 12% 29.78 in 10.0 mi West 11.5 mph - N/A   Clear
5:55 PM 73.8 °F - 18.1 °F 12% 29.78 in 10.0 mi WSW 10.4 mph 17.3 mph N/A   Clear
6:15 PM 71.2 °F - 17.6 °F 13% 29.78 in 10.0 mi WSW 5.8 mph - N/A   Clear
6:35 PM 69.1 °F - 17.6 °F 14% 29.78 in 10.0 mi WSW 4.6 mph - N/A   Clear
6:55 PM 65.3 °F - 18.0 °F 16% 29.78 in 10.0 mi SW 4.6 mph - N/A   Clear
7:35 PM 61.7 °F - 18.5 °F 19% 29.78 in 10.0 mi SW 4.6 mph - N/A   Clear
7:55 PM 61.2 °F - 19.4 °F 20% 29.78 in 7.0 mi Calm Calm - N/A   Clear
8:35 PM 57.7 °F - 21.0 °F 24% 29.78 in 10.0 mi SSW 4.6 mph - N/A   Clear
9:15 PM 53.4 °F - 22.6 °F 30% 29.78 in 10.0 mi SSW 5.8 mph - N/A   Clear
9:35 PM 55.0 °F - 22.3 °F 28% 29.79 in 10.0 mi SSW 4.6 mph - N/A   Clear
9:55 PM 53.1 °F - 20.7 °F 28% 29.79 in 10.0 mi SW 5.8 mph - N/A   Clear
10:15 PM 50.7 °F - 21.2 °F 31% 29.81 in 10.0 mi NW 9.2 mph 16.1 mph N/A   Clear
10:55 PM 55.4 °F - 20.3 °F 25% 29.81 in 10.0 mi West 5.8 mph - N/A   Clear
11:35 PM 52.7 °F - 25.3 °F 35% 29.82 in 10.0 mi East 3.5 mph - N/A   Clear
11:55 PM 52.7 °F - 27.1 °F 37% 29.83 in 10.0 mi NNE 4.6 mph - N/A   Clear